Data No, UTC Date,UTC Time,Latitude,Longitude,Course(deg),Temp(degC),Sal(psu),pH
521,2018/11/29,8:40,42-36.84N,141-37.00E,208,11.653,33.1802,8.15
522,2018/11/29,8:41,42-36.59N,141-36.83E,202,11.866,33.305,8.14
523,2018/11/29,8:42,42-36.31N,141-36.82E,171,12.219,33.4961,8.16
524,2018/11/29,8:43,42-36.04N,141-36.98E,149,12.496,33.7051,8.16
525,2018/11/29,8:44,42-35.79N,141-37.21E,146,12.622,33.8122,8.18
526,2018/11/29,8:45,42-35.53N,141-37.44E,145,12.803,33.8366,8.19
527,2018/11/29,8:46,42-35.26N,141-37.69E,145,12.891,33.8585,8.21
528,2018/11/29,8:47,42-34.98N,141-37.93E,147,12.957,33.8702,8.21
529,2018/11/29,8:48,42-34.71N,141-38.19E,144,13.051,33.8913,8.21
530,2018/11/29,8:49,42-34.42N,141-38.45E,146,13.104,33.9022,8.21
531,2018/11/29,8:50,42-34.13N,141-38.69E,149,13.141,33.9049,8.21
532,2018/11/29,8:51,42-33.83N,141-38.94E,147,13.184,33.9079,8.22
533,2018/11/29,8:52,42-33.55N,141-39.21E,143,13.194,33.9099,8.21
534,2018/11/29,8:53,42-33.27N,141-39.50E,142,13.166,33.9102,8.21
535,2018/11/29,8:54,42-32.99N,141-39.79E,141,13.068,33.9053,8.22
536,2018/11/29,8:55,42-32.71N,141-40.10E,141,13.021,33.9008,8.22
537,2018/11/29,8:56,42-32.42N,141-40.40E,142,13.002,33.9003,8.22
538,2018/11/29,8:57,42-32.12N,141-40.70E,143,12.957,33.9031,8.22
539,2018/11/29,8:58,42-31.83N,141-41.00E,141,12.976,33.9044,8.22
540,2018/11/29,8:59,42-31.55N,141-41.32E,138,12.992,33.9064,8.22
541,2018/11/29,9:00,42-31.26N,141-41.64E,140,12.974,33.9067,8.22
542,2018/11/29,9:01,42-30.97N,141-41.95E,141,12.987,33.9069,8.22
543,2018/11/29,9:02,42-30.68N,141-42.26E,141,13,33.9024,8.21
544,2018/11/29,9:03,42-30.39N,141-42.58E,141,13.169,33.8801,8.22
545,2018/11/29,9:04,42-30.10N,141-42.89E,141,13.317,33.8938,8.22
546,2018/11/29,9:05,42-29.80N,141-43.21E,140,13.335,33.91,8.2
547,2018/11/29,9:06,42-29.52N,141-43.54E,138,13.35,33.9102,8.21
548,2018/11/29,9:07,42-29.25N,141-43.87E,138,13.349,33.9068,8.21
549,2018/11/29,9:08,42-28.97N,141-44.20E,138,13.326,33.9038,8.22
550,2018/11/29,9:09,42-28.70N,141-44.54E,137,13.301,33.909,8.21
551,2018/11/29,9:10,42-28.42N,141-44.87E,138,13.281,33.9109,8.21
552,2018/11/29,9:11,42-28.14N,141-45.21E,138,13.298,33.9107,8.22
553,2018/11/29,9:12,42-27.85N,141-45.54E,139,13.323,33.9116,8.22
554,2018/11/29,9:13,42-27.57N,141-45.89E,136,13.367,33.911,8.22
555,2018/11/29,9:14,42-27.31N,141-46.25E,134,13.425,33.9153,8.22
556,2018/11/29,9:15,42-27.05N,141-46.61E,134,13.478,33.9252,8.21
557,2018/11/29,9:16,42-26.80N,141-46.98E,132,13.466,33.9293,8.22
558,2018/11/29,9:17,42-26.54N,141-47.35E,133,13.434,33.9227,8.21
559,2018/11/29,9:18,42-26.28N,141-47.71E,134,13.42,33.9175,8.22
560,2018/11/29,9:19,42-26.01N,141-48.09E,134,13.418,33.9178,8.22
561,2018/11/29,9:20,42-25.75N,141-48.44E,135,13.421,33.9177,8.22
562,2018/11/29,9:21,42-25.49N,141-48.79E,134,13.425,33.9166,8.22
563,2018/11/29,9:22,42-25.24N,141-49.17E,132,13.426,33.9161,8.22
564,2018/11/29,9:23,42-24.98N,141-49.53E,134,13.431,33.916,8.22
565,2018/11/29,9:24,42-24.70N,141-49.88E,136,13.434,33.9179,8.22
566,2018/11/29,9:25,42-24.44N,141-50.25E,132,13.433,33.9188,8.22
567,2018/11/29,9:26,42-24.21N,141-50.64E,125,13.428,33.9185,8.22
568,2018/11/29,9:27,42-24.02N,141-51.05E,120,13.419,33.9178,8.22
569,2018/11/29,9:28,42-23.84N,141-51.50E,117,13.408,33.9148,8.22
570,2018/11/29,9:29,42-23.67N,141-51.94E,116,13.391,33.9146,8.22
571,2018/11/29,9:30,42-23.50N,141-52.39E,117,13.39,33.9163,8.22
572,2018/11/29,9:31,42-23.32N,141-52.84E,119,13.366,33.918,8.22
573,2018/11/29,9:32,42-23.12N,141-53.28E,121,13.308,33.916,8.21
574,2018/11/29,9:33,42-22.93N,141-53.71E,120,13.279,33.9122,8.21
575,2018/11/29,9:34,42-22.75N,141-54.15E,118,13.29,33.9081,8.22
576,2018/11/29,9:35,42-22.57N,141-54.59E,119,13.275,33.9158,8.21
577,2018/11/29,9:36,42-22.37N,141-55.02E,122,13.228,33.9169,8.21
578,2018/11/29,9:37,42-22.17N,141-55.45E,120,13.185,33.9116,8.22
579,2018/11/29,9:38,42-21.99N,141-55.88E,118,13.166,33.9048,8.22
580,2018/11/29,9:39,42-21.79N,141-56.31E,125,13.197,33.9035,8.21
581,2018/11/29,9:40,42-21.58N,141-56.74E,120,13.332,33.9123,8.21
582,2018/11/29,9:41,42-21.40N,141-57.17E,121,13.41,33.9292,8.21
583,2018/11/29,9:42,42-21.20N,141-57.60E,122,13.411,33.9363,8.22
584,2018/11/29,9:43,42-21.00N,141-58.03E,122,13.386,33.9387,8.22
585,2018/11/29,9:44,42-20.80N,141-58.46E,123,13.37,33.9353,8.21
586,2018/11/29,9:45,42-20.60N,141-58.89E,120,13.378,33.9306,8.22
587,2018/11/29,9:46,42-20.42N,141-59.34E,118,13.381,33.932,8.22
588,2018/11/29,9:47,42-20.23N,141-59.79E,120,13.361,33.9338,8.22
589,2018/11/29,9:48,42-20.04N,142-00.21E,122,13.32,33.9328,8.22
590,2018/11/29,9:49,42-19.83N,142-00.63E,122,13.245,33.9318,8.22
591,2018/11/29,9:50,42-19.65N,142-01.07E,118,13.229,33.9299,8.21
592,2018/11/29,9:51,42-19.47N,142-01.52E,119,13.351,33.9341,8.22
593,2018/11/29,9:52,42-19.27N,142-01.96E,122,13.456,33.9393,8.21
594,2018/11/29,9:53,42-19.07N,142-02.38E,121,13.52,33.942,8.21
595,2018/11/29,9:54,42-18.88N,142-02.82E,118,13.514,33.9372,8.22
596,2018/11/29,9:55,42-18.70N,142-03.27E,119,13.518,33.9416,8.22
597,2018/11/29,9:56,42-18.51N,142-03.71E,120,13.512,33.9425,8.21
598,2018/11/29,9:57,42-18.31N,142-04.14E,121,13.473,33.9415,8.22
599,2018/11/29,9:58,42-18.12N,142-04.56E,122,13.418,33.9372,8.21
600,2018/11/29,9:59,42-17.92N,142-04.99E,119,13.393,33.927,8.22
601,2018/11/29,10:00,42-17.74N,142-05.43E,118,13.36,33.9232,8.21
602,2018/11/29,10:01,42-17.56N,142-05.87E,119,13.314,33.9271,8.22
603,2018/11/29,10:02,42-17.36N,142-06.31E,121,13.227,33.9302,8.21
604,2018/11/29,10:03,42-17.15N,142-06.74E,123,13.182,33.9261,8.21
605,2018/11/29,10:04,42-16.96N,142-07.17E,121,13.133,33.9217,8.2
606,2018/11/29,10:05,42-16.78N,142-07.60E,118,13.06,33.9174,8.21
607,2018/11/29,10:06,42-16.58N,142-08.03E,123,13.001,33.9098,8.19
608,2018/11/29,10:07,42-16.38N,142-08.45E,121,12.918,33.897,8.18
609,2018/11/29,10:08,42-16.20N,142-08.90E,118,12.826,33.8768,8.17
610,2018/11/29,10:09,42-16.00N,142-09.32E,123,12.774,33.8588,8.18
611,2018/11/29,10:10,42-15.80N,142-09.74E,123,12.634,33.8357,8.18
612,2018/11/29,10:11,42-15.60N,142-10.15E,121,12.582,33.7983,8.19
613,2018/11/29,10:12,42-15.42N,142-10.59E,119,12.551,33.7857,8.19
614,2018/11/29,10:13,42-15.23N,142-11.01E,122,12.539,33.7874,8.21
615,2018/11/29,10:14,42-15.02N,142-11.43E,124,12.519,33.7975,8.21
616,2018/11/29,10:15,42-14.82N,142-11.84E,124,12.436,33.7988,8.19
617,2018/11/29,10:16,42-14.60N,142-12.25E,127,12.455,33.7935,8.19
618,2018/11/29,10:17,42-14.37N,142-12.65E,126,12.463,33.805,8.19
619,2018/11/29,10:18,42-14.16N,142-13.06E,124,12.455,33.8086,8.19
620,2018/11/29,10:19,42-13.95N,142-13.48E,122,12.257,33.7934,8.18
621,2018/11/29,10:20,42-13.74N,142-13.89E,126,12.099,33.7506,8.18
622,2018/11/29,10:21,42-13.52N,142-14.30E,124,12.113,33.7188,8.18
623,2018/11/29,10:22,42-13.32N,142-14.71E,123,12.072,33.7215,8.17
624,2018/11/29,10:23,42-13.13N,142-15.13E,121,12.03,33.7117,8.17
625,2018/11/29,10:24,42-12.93N,142-15.56E,121,11.943,33.7087,8.18
626,2018/11/29,10:25,42-12.74N,142-15.98E,121,11.813,33.697,8.18
627,2018/11/29,10:26,42-12.54N,142-16.40E,124,11.782,33.68,8.18
628,2018/11/29,10:27,42-12.33N,142-16.82E,123,11.704,33.6697,8.17
629,2018/11/29,10:28,42-12.15N,142-17.25E,118,11.588,33.6418,8.17
630,2018/11/29,10:29,42-11.96N,142-17.67E,122,11.474,33.6203,8.18
631,2018/11/29,10:30,42-11.76N,142-18.08E,122,11.579,33.5994,8.17
632,2018/11/29,10:31,42-11.58N,142-18.49E,121,11.634,33.6187,8.16
633,2018/11/29,10:32,42-11.39N,142-18.92E,120,11.743,33.637,8.18
634,2018/11/29,10:33,42-11.19N,142-19.35E,122,11.829,33.6649,8.17
635,2018/11/29,10:34,42-11.01N,142-19.77E,119,11.883,33.6761,8.17
636,2018/11/29,10:35,42-10.84N,142-20.20E,118,12.069,33.683,8.18
637,2018/11/29,10:36,42-10.67N,142-20.63E,117,12.326,33.7245,8.18
638,2018/11/29,10:37,42-10.51N,142-21.07E,116,12.535,33.78,8.18
639,2018/11/29,10:38,42-10.34N,142-21.50E,118,12.507,33.8326,8.18
640,2018/11/29,10:39,42-10.15N,142-21.93E,121,12.482,33.8336,8.17
641,2018/11/29,10:40,42-09.97N,142-22.35E,119,12.416,33.8321,8.17
642,2018/11/29,10:41,42-09.80N,142-22.77E,116,12.392,33.8218,8.17
643,2018/11/29,10:42,42-09.64N,142-23.21E,117,12.331,33.8179,8.17
644,2018/11/29,10:43,42-09.46N,142-23.63E,120,11.96,33.8144,8.16
645,2018/11/29,10:44,42-09.28N,142-24.04E,120,11.844,33.7375,8.17
646,2018/11/29,10:45,42-09.11N,142-24.46E,117,11.878,33.7057,8.15
647,2018/11/29,10:46,42-08.94N,142-24.89E,119,11.876,33.712,8.15
648,2018/11/29,10:47,42-08.75N,142-25.29E,122,11.859,33.7176,8.15
649,2018/11/29,10:48,42-08.57N,142-25.70E,117,11.836,33.7202,8.13
650,2018/11/29,10:49,42-08.39N,142-26.12E,122,11.775,33.721,8.13
651,2018/11/29,10:50,42-08.21N,142-26.53E,119,11.702,33.7129,8.12
652,2018/11/29,10:51,42-08.03N,142-26.91E,123,11.56,33.7042,8.1
653,2018/11/29,10:52,42-07.86N,142-27.32E,116,11.291,33.6715,8.07
654,2018/11/29,10:53,42-07.71N,142-27.73E,117,11.141,33.6252,8.1
655,2018/11/29,10:54,42-07.53N,142-28.13E,122,10.824,33.5887,8.11
656,2018/11/29,10:55,42-07.36N,142-28.53E,117,10.494,33.5184,8.13
657,2018/11/29,10:56,42-07.20N,142-28.94E,118,10.432,33.4524,8.15
658,2018/11/29,10:57,42-07.02N,142-29.33E,122,10.459,33.4521,8.16
659,2018/11/29,10:58,42-06.84N,142-29.75E,117,10.393,33.4555,8.18
660,2018/11/29,10:59,42-06.69N,142-30.14E,118,10.049,33.4498,8.18
661,2018/11/29,11:00,42-06.52N,142-30.55E,119,9.885,33.3919,8.18
662,2018/11/29,11:01,42-06.35N,142-30.93E,122,9.88,33.3436,8.17
663,2018/11/29,11:02,42-06.18N,142-31.34E,117,10.034,33.3577,8.16
664,2018/11/29,11:03,42-06.02N,142-31.76E,118,10.644,33.387,8.17
665,2018/11/29,11:04,42-05.85N,142-32.17E,118,11.207,33.4981,8.18
666,2018/11/29,11:05,42-05.69N,142-32.57E,117,11.744,33.5955,8.19
667,2018/11/29,11:06,42-05.51N,142-32.99E,122,12.104,33.6387,8.2
668,2018/11/29,11:07,42-05.34N,142-33.40E,120,12.378,33.6825,8.21
669,2018/11/29,11:08,42-05.16N,142-33.82E,118,12.54,33.7079,8.21
670,2018/11/29,11:09,42-04.99N,142-34.24E,117,12.688,33.7167,8.22
671,2018/11/29,11:10,42-04.83N,142-34.66E,118,12.75,33.7243,8.21
672,2018/11/29,11:11,42-04.66N,142-35.08E,118,12.854,33.7407,8.21
673,2018/11/29,11:12,42-04.47N,142-35.50E,122,12.846,33.7518,8.21
674,2018/11/29,11:13,42-04.28N,142-35.91E,123,12.833,33.7569,8.21
675,2018/11/29,11:14,42-04.11N,142-36.31E,119,12.815,33.763,8.21
676,2018/11/29,11:15,42-03.94N,142-36.75E,117,12.762,33.7688,8.21
677,2018/11/29,11:16,42-03.77N,142-37.16E,121,12.731,33.7705,8.21
678,2018/11/29,11:17,42-03.58N,142-37.57E,119,12.754,33.7783,8.21
679,2018/11/29,11:18,42-03.40N,142-37.98E,120,12.801,33.7879,8.21
680,2018/11/29,11:19,42-03.23N,142-38.38E,117,12.792,33.7846,8.21
681,2018/11/29,11:20,42-03.07N,142-38.80E,116,12.83,33.7716,8.21
682,2018/11/29,11:21,42-02.90N,142-39.21E,118,12.871,33.7787,8.21
683,2018/11/29,11:22,42-02.74N,142-39.62E,118,12.916,33.7906,8.19
684,2018/11/29,11:23,42-02.55N,142-40.03E,121,12.913,33.7969,8.21
685,2018/11/29,11:24,42-02.38N,142-40.44E,117,12.916,33.7936,8.21
686,2018/11/29,11:25,42-02.23N,142-40.86E,115,13.006,33.7986,8.21
687,2018/11/29,11:26,42-02.05N,142-41.28E,122,13.008,33.813,8.21
688,2018/11/29,11:27,42-01.86N,142-41.69E,121,12.942,33.8087,8.21
689,2018/11/29,11:28,42-01.69N,142-42.11E,116,12.892,33.7948,8.21
690,2018/11/29,11:29,42-01.53N,142-42.53E,117,12.847,33.7885,8.21
691,2018/11/29,11:30,42-01.37N,142-42.95E,117,12.829,33.7846,8.21
692,2018/11/29,11:31,42-01.19N,142-43.37E,120,12.795,33.783,8.21
693,2018/11/29,11:32,42-01.01N,142-43.78E,120,12.771,33.7809,8.21
694,2018/11/29,11:33,42-00.82N,142-44.19E,122,12.761,33.7776,8.21
695,2018/11/29,11:34,42-00.64N,142-44.60E,120,12.76,33.776,8.21
696,2018/11/29,11:35,42-00.47N,142-45.03E,117,12.765,33.7761,8.22
697,2018/11/29,11:36,42-00.31N,142-45.44E,117,12.767,33.7758,8.21
698,2018/11/29,11:37,42-00.15N,142-45.87E,116,12.774,33.7753,8.21
699,2018/11/29,11:38,41-59.99N,142-46.29E,117,12.777,33.7748,8.21
700,2018/11/29,11:39,41-59.83N,142-46.72E,115,12.784,33.7747,8.21
701,2018/11/29,11:40,41-59.68N,142-47.16E,112,12.787,33.7739,8.21
702,2018/11/29,11:41,41-59.54N,142-47.59E,114,12.793,33.7721,8.21
703,2018/11/29,11:42,41-59.37N,142-48.01E,119,12.794,33.7706,8.21
704,2018/11/29,11:43,41-59.20N,142-48.43E,116,12.791,33.769,8.21
705,2018/11/29,11:44,41-59.05N,142-48.87E,113,12.785,33.7663,8.21
706,2018/11/29,11:45,41-58.91N,142-49.31E,113,12.767,33.7641,8.21
707,2018/11/29,11:46,41-58.78N,142-49.76E,111,12.737,33.7603,8.21
708,2018/11/29,11:47,41-58.62N,142-50.20E,115,12.699,33.7573,8.21
709,2018/11/29,11:48,41-58.46N,142-50.64E,113,12.641,33.7567,8.21
710,2018/11/29,11:49,41-58.33N,142-51.08E,111,12.582,33.7551,8.2
711,2018/11/29,11:50,41-58.19N,142-51.51E,114,12.51,33.7519,8.2
712,2018/11/29,11:51,41-58.05N,142-51.95E,112,12.425,33.7477,8.2
713,2018/11/29,11:52,41-57.91N,142-52.39E,112,12.347,33.7419,8.2
714,2018/11/29,11:53,41-57.77N,142-52.82E,113,12.225,33.7316,8.19
715,2018/11/29,11:54,41-57.61N,142-53.25E,116,12.138,33.7179,8.19
716,2018/11/29,11:55,41-57.44N,142-53.67E,119,12.091,33.7098,8.19
717,2018/11/29,11:56,41-57.26N,142-54.08E,119,12.08,33.7077,8.18
718,2018/11/29,11:57,41-57.07N,142-54.49E,123,12.092,33.7088,8.19
719,2018/11/29,11:58,41-56.88N,142-54.89E,121,12.358,33.7247,8.18
720,2018/11/29,11:59,41-56.70N,142-55.30E,120,12.486,33.796,8.19
721,2018/11/29,12:00,41-56.52N,142-55.71E,118,12.466,33.7999,8.19
722,2018/11/29,12:01,41-56.35N,142-56.13E,120,12.471,33.7905,8.2
723,2018/11/29,12:02,41-56.15N,142-56.55E,120,12.471,33.7886,8.2
724,2018/11/29,12:03,41-55.97N,142-56.96E,120,12.469,33.7888,8.21
725,2018/11/29,12:04,41-55.80N,142-57.37E,118,12.467,33.7885,8.21
726,2018/11/29,12:05,41-55.62N,142-57.80E,119,12.543,33.7846,8.21
727,2018/11/29,12:06,41-55.43N,142-58.22E,123,12.585,33.7887,8.21
728,2018/11/29,12:07,41-55.24N,142-58.64E,120,12.716,33.7901,8.2
729,2018/11/29,12:08,41-55.07N,142-59.06E,117,12.975,33.7962,8.2
730,2018/11/29,12:09,41-54.88N,142-59.48E,121,13.189,33.825,8.21
731,2018/11/29,12:10,41-54.69N,142-59.90E,121,13.208,33.8598,8.21
732,2018/11/29,12:11,41-54.49N,143-00.31E,122,13.357,33.8394,8.21
733,2018/11/29,12:12,41-54.29N,143-00.73E,121,13.493,33.8483,8.21
734,2018/11/29,12:13,41-54.11N,143-01.15E,120,13.491,33.8572,8.23
735,2018/11/29,12:14,41-53.93N,143-01.58E,119,13.488,33.8622,8.22
736,2018/11/29,12:15,41-53.73N,143-02.00E,123,13.424,33.8604,8.22
737,2018/11/29,12:16,41-53.53N,143-02.41E,122,13.374,33.8573,8.21
738,2018/11/29,12:17,41-53.35N,143-02.84E,119,13.337,33.8549,8.22
739,2018/11/29,12:18,41-53.17N,143-03.25E,120,13.308,33.8536,8.22
740,2018/11/29,12:19,41-52.97N,143-03.66E,123,13.246,33.8515,8.22
741,2018/11/29,12:20,41-52.78N,143-04.08E,120,13.197,33.8459,8.22
742,2018/11/29,12:21,41-52.59N,143-04.52E,119,13.116,33.8409,8.22
743,2018/11/29,12:22,41-52.39N,143-04.93E,124,13.095,33.8335,8.21
744,2018/11/29,12:23,41-52.19N,143-05.35E,120,13.07,33.8308,8.21
745,2018/11/29,12:24,41-52.00N,143-05.78E,121,12.999,33.8275,8.21
746,2018/11/29,12:25,41-51.80N,143-06.20E,122,12.939,33.8218,8.21
747,2018/11/29,12:26,41-51.59N,143-06.61E,123,12.814,33.8173,8.21
748,2018/11/29,12:27,41-51.41N,143-07.03E,119,12.617,33.8108,8.21
749,2018/11/29,12:28,41-51.22N,143-07.45E,121,12.538,33.8073,8.2
750,2018/11/29,12:29,41-51.00N,143-07.90E,124,12.504,33.8093,8.21
751,2018/11/29,12:30,41-50.78N,143-08.34E,122,12.439,33.8169,8.21
752,2018/11/29,12:31,41-50.63N,143-08.70E,119,12.295,33.819,8.19
753,2018/11/29,12:32,41-50.45N,143-09.13E,120,12.057,33.8014,8.18
754,2018/11/29,12:33,41-50.24N,143-09.54E,124,11.767,33.7713,8.18
755,2018/11/29,12:34,41-50.04N,143-09.96E,121,11.708,33.7264,8.18
756,2018/11/29,12:35,41-49.86N,143-10.38E,120,11.593,33.7158,8.16
757,2018/11/29,12:36,41-49.66N,143-10.80E,124,11.494,33.6993,8.17
758,2018/11/29,12:37,41-49.45N,143-11.21E,122,11.185,33.6774,8.16
759,2018/11/29,12:38,41-49.27N,143-11.63E,119,10.841,33.6306,8.16
760,2018/11/29,12:39,41-49.07N,143-12.05E,124,10.741,33.5709,8.15
761,2018/11/29,12:40,41-48.87N,143-12.47E,121,10.493,33.5513,8.15
762,2018/11/29,12:41,41-48.69N,143-12.89E,119,10.082,33.5299,8.14
763,2018/11/29,12:42,41-48.51N,143-13.30E,120,9.605,33.4772,8.13
764,2018/11/29,12:43,41-48.31N,143-13.71E,125,9.452,33.3933,8.12
765,2018/11/29,12:44,41-48.12N,143-14.12E,116,9.486,33.3643,8.1
766,2018/11/29,12:45,41-48.06N,143-14.62E,90,9.705,33.3613,8.11
767,2018/11/29,12:46,41-48.15N,143-14.99E,71,9.919,33.3762,8.11
768,2018/11/29,12:47,41-48.24N,143-15.36E,70,10.034,33.3956,8.11
769,2018/11/29,12:48,41-48.36N,143-15.75E,66,10.116,33.4037,8.11
770,2018/11/29,12:49,41-48.50N,143-16.14E,64,10.204,33.4087,8.13
771,2018/11/29,12:50,41-48.64N,143-16.52E,64,10.269,33.4131,8.12
772,2018/11/29,12:51,41-48.78N,143-16.91E,64,10.325,33.4178,8.13
773,2018/11/29,12:52,41-48.92N,143-17.30E,64,10.386,33.422,8.13
774,2018/11/29,12:53,41-49.06N,143-17.70E,65,10.451,33.43,8.13
775,2018/11/29,12:54,41-49.21N,143-18.11E,64,10.435,33.4351,8.13
776,2018/11/29,12:55,41-49.35N,143-18.49E,62,10.429,33.4343,8.13
777,2018/11/29,12:56,41-49.56N,143-18.79E,41,10.468,33.4353,8.13
778,2018/11/29,12:57,41-49.82N,143-19.00E,29,10.499,33.4376,8.13
779,2018/11/29,12:58,41-50.09N,143-19.20E,26,10.507,33.4399,8.13
780,2018/11/29,12:59,41-50.38N,143-19.37E,21,10.522,33.4399,8.13
781,2018/11/29,13:00,41-50.67N,143-19.55E,27,10.532,33.4427,8.15
782,2018/11/29,13:01,41-50.96N,143-19.76E,28,10.566,33.4458,8.14
783,2018/11/29,13:02,41-51.25N,143-19.97E,28,10.598,33.4505,8.15
784,2018/11/29,13:03,41-51.52N,143-20.16E,28,10.632,33.4578,8.15
785,2018/11/29,13:04,41-51.81N,143-20.37E,28,10.639,33.4617,8.14
786,2018/11/29,13:05,41-52.10N,143-20.58E,28,10.612,33.4603,8.15
787,2018/11/29,13:06,41-52.38N,143-20.79E,29,10.563,33.4527,8.15
788,2018/11/29,13:07,41-52.67N,143-21.00E,28,10.55,33.4409,8.15
789,2018/11/29,13:08,41-52.96N,143-21.21E,28,10.51,33.4357,8.15
790,2018/11/29,13:09,41-53.25N,143-21.41E,27,10.483,33.4292,8.15
791,2018/11/29,13:10,41-53.55N,143-21.62E,26,10.497,33.425,8.15
792,2018/11/29,13:11,41-53.84N,143-21.81E,28,10.489,33.4295,8.15
793,2018/11/29,13:12,41-54.14N,143-22.02E,27,10.453,33.4274,8.15
794,2018/11/29,13:13,41-54.43N,143-22.23E,28,10.433,33.4201,8.15
795,2018/11/29,13:14,41-54.72N,143-22.43E,25,10.4,33.4169,8.15
796,2018/11/29,13:15,41-55.01N,143-22.64E,29,10.354,33.4116,8.15
797,2018/11/29,13:16,41-55.30N,143-22.85E,29,10.339,33.4092,8.14
798,2018/11/29,13:17,41-55.59N,143-23.08E,30,10.308,33.4081,8.15
799,2018/11/29,13:18,41-55.89N,143-23.29E,27,10.242,33.4063,8.14
800,2018/11/29,13:19,41-56.19N,143-23.51E,27,10.169,33.4014,8.14
801,2018/11/29,13:20,41-56.50N,143-23.72E,26,10.157,33.3904,8.14
802,2018/11/29,13:21,41-56.81N,143-23.91E,22,10.124,33.386,8.14
803,2018/11/29,13:22,41-57.12N,143-24.11E,28,10.132,33.3842,8.15
804,2018/11/29,13:23,41-57.41N,143-24.35E,31,10.153,33.384,8.14
805,2018/11/29,13:24,41-57.71N,143-24.59E,31,10.175,33.389,8.14
806,2018/11/29,13:25,41-58.01N,143-24.84E,31,10.18,33.3929,8.13
807,2018/11/29,13:26,41-58.33N,143-25.06E,27,10.193,33.3955,8.13
808,2018/11/29,13:27,41-58.64N,143-25.28E,28,10.194,33.3977,8.13
809,2018/11/29,13:28,41-58.95N,143-25.52E,30,10.224,33.4,8.13
810,2018/11/29,13:29,41-59.24N,143-25.77E,34,10.264,33.4041,8.14
811,2018/11/29,13:30,41-59.54N,143-26.02E,30,10.281,33.4086,8.14
812,2018/11/29,13:31,41-59.85N,143-26.26E,30,10.275,33.4112,8.15
813,2018/11/29,13:32,42-00.16N,143-26.53E,33,10.256,33.4123,8.14
814,2018/11/29,13:33,42-00.46N,143-26.78E,30,10.239,33.4124,8.13
815,2018/11/29,13:34,42-00.78N,143-27.01E,28,10.203,33.4122,8.13
816,2018/11/29,13:35,42-01.09N,143-27.26E,33,10.123,33.4066,8.13
817,2018/11/29,13:36,42-01.39N,143-27.52E,31,10.064,33.3839,8.14
818,2018/11/29,13:37,42-01.69N,143-27.76E,30,10.071,33.3717,8.14
819,2018/11/29,13:38,42-01.99N,143-28.00E,30,10.074,33.3733,8.14
820,2018/11/29,13:39,42-02.30N,143-28.23E,28,10.052,33.3755,8.13
821,2018/11/29,13:40,42-02.61N,143-28.46E,30,9.947,33.3738,8.14
822,2018/11/29,13:41,42-02.91N,143-28.71E,31,9.879,33.3526,8.15
823,2018/11/29,13:42,42-03.22N,143-28.96E,30,9.843,33.3402,8.15
824,2018/11/29,13:43,42-03.54N,143-29.20E,28,9.8,33.3359,8.15
825,2018/11/29,13:44,42-03.83N,143-29.40E,27,9.767,33.3285,8.15
826,2018/11/29,13:45,42-04.12N,143-29.63E,32,9.751,33.3249,8.15
827,2018/11/29,13:46,42-04.40N,143-29.87E,31,9.709,33.3211,8.15
828,2018/11/29,13:47,42-04.69N,143-30.10E,29,9.703,33.316,8.15
829,2018/11/29,13:48,42-04.98N,143-30.33E,30,9.671,33.3116,8.15
830,2018/11/29,13:49,42-05.27N,143-30.55E,31,9.635,33.3088,8.15
831,2018/11/29,13:50,42-05.56N,143-30.78E,30,9.629,33.3075,8.15
832,2018/11/29,13:51,42-05.84N,143-31.00E,28,9.632,33.3075,8.15
833,2018/11/29,13:52,42-06.13N,143-31.21E,29,9.611,33.3077,8.16
834,2018/11/29,13:53,42-06.42N,143-31.44E,30,9.616,33.3123,8.16
835,2018/11/29,13:54,42-06.71N,143-31.68E,31,9.645,33.3177,8.15
836,2018/11/29,13:55,42-06.99N,143-31.90E,30,9.672,33.3263,8.15
837,2018/11/29,13:56,42-07.28N,143-32.11E,27,9.672,33.3315,8.16
838,2018/11/29,13:57,42-07.57N,143-32.33E,29,9.689,33.334,8.17
839,2018/11/29,13:58,42-07.85N,143-32.57E,33,9.672,33.3356,8.17
840,2018/11/29,13:59,42-08.14N,143-32.81E,31,9.629,33.3384,8.17
841,2018/11/29,14:00,42-08.42N,143-33.03E,28,9.607,33.342,8.16
842,2018/11/29,14:01,42-08.71N,143-33.24E,28,9.481,33.3431,8.17
843,2018/11/29,14:02,42-08.99N,143-33.46E,32,9.38,33.3314,8.16
844,2018/11/29,14:03,42-09.27N,143-33.70E,31,9.392,33.3192,8.16
845,2018/11/29,14:04,42-09.56N,143-33.93E,30,9.408,33.3196,8.16
846,2018/11/29,14:05,42-09.85N,143-34.14E,26,9.443,33.3245,8.17
847,2018/11/29,14:06,42-10.15N,143-34.33E,25,9.473,33.3292,8.16
848,2018/11/29,14:07,42-10.45N,143-34.52E,25,9.494,33.3345,8.16
849,2018/11/29,14:08,42-10.75N,143-34.72E,26,9.544,33.3353,8.17
850,2018/11/29,14:09,42-11.05N,143-34.92E,26,9.581,33.3417,8.16
851,2018/11/29,14:10,42-11.35N,143-35.12E,26,9.595,33.3453,8.16
852,2018/11/29,14:11,42-11.65N,143-35.32E,25,9.595,33.3454,8.16
853,2018/11/29,14:12,42-11.94N,143-35.52E,26,9.602,33.3404,8.16
854,2018/11/29,14:13,42-12.24N,143-35.72E,26,9.591,33.3368,8.15
855,2018/11/29,14:14,42-12.54N,143-35.93E,28,9.601,33.3304,8.15
856,2018/11/29,14:15,42-12.84N,143-36.16E,30,9.612,33.3289,8.16
857,2018/11/29,14:16,42-13.11N,143-36.39E,32,9.618,33.3289,8.16
858,2018/11/29,14:17,42-13.40N,143-36.63E,32,9.658,33.328,8.17
859,2018/11/29,14:18,42-13.68N,143-36.87E,32,9.674,33.3329,8.16
860,2018/11/29,14:19,42-13.96N,143-37.12E,32,9.689,33.3348,8.17
861,2018/11/29,14:20,42-14.24N,143-37.36E,33,9.691,33.3361,8.16
862,2018/11/29,14:21,42-14.52N,143-37.61E,33,9.701,33.3372,8.15
863,2018/11/29,14:22,42-14.79N,143-37.85E,32,9.715,33.3388,8.16
864,2018/11/29,14:23,42-15.07N,143-38.09E,32,9.732,33.3397,8.17
865,2018/11/29,14:24,42-15.35N,143-38.33E,32,9.739,33.3416,8.16
866,2018/11/29,14:25,42-15.63N,143-38.58E,33,9.748,33.3436,8.16
867,2018/11/29,14:26,42-15.91N,143-38.83E,33,9.767,33.3449,8.16
868,2018/11/29,14:27,42-16.19N,143-39.07E,33,9.775,33.3475,8.16
869,2018/11/29,14:28,42-16.46N,143-39.32E,32,9.787,33.3498,8.16
870,2018/11/29,14:29,42-16.74N,143-39.56E,33,9.79,33.3511,8.15
871,2018/11/29,14:30,42-17.02N,143-39.81E,33,9.78,33.3513,8.15
872,2018/11/29,14:31,42-17.30N,143-40.06E,33,9.789,33.3515,8.15
873,2018/11/29,14:32,42-17.58N,143-40.31E,33,9.785,33.3527,8.15
874,2018/11/29,14:33,42-17.85N,143-40.55E,33,9.787,33.3533,8.15
875,2018/11/29,14:34,42-18.13N,143-40.79E,33,9.785,33.3544,8.16
876,2018/11/29,14:35,42-18.40N,143-41.03E,32,9.791,33.3556,8.16
877,2018/11/29,14:36,42-18.69N,143-41.28E,32,9.789,33.3562,8.16
878,2018/11/29,14:37,42-18.96N,143-41.51E,32,9.791,33.3572,8.16
879,2018/11/29,14:38,42-19.24N,143-41.75E,32,9.789,33.3592,8.15
880,2018/11/29,14:39,42-19.52N,143-42.00E,32,9.783,33.3612,8.15
881,2018/11/29,14:40,42-19.80N,143-42.24E,32,9.784,33.3632,8.16
882,2018/11/29,14:41,42-20.08N,143-42.49E,32,9.787,33.3658,8.15